Вернуться в каталог

BLOCK DM-SL R/B

АктивенGTO
NORAD 27855·ROCKET BODY· XX

Запущен Aug 8, 2003 с Sea Launch Platform

Loading…

TLE

СвежийSource: Space-Track

Эпоха: Sep 14, 2026, 21:19 UTC

1 27855U 03034B   26257.88828727 -.00000028  00000-0  68792-3 0  9995
2 27855   0.8151 323.7698 7142659 308.2768 193.3013  2.24675270189722

Отслеживайте BLOCK DM-SL R/B в реальном времени с AllMySat

Download on the App Store